STARLINK-37975, 69707

Orbit data source: Space-Track

STARLINK-37975, 69707 is a payload satellite owned by SpaceX/Seattle (US) in SSO that was launched on Sun, 28 Jun 2026 UTC via an FALCON 9 launch vehicle from the Air Force Western Test Range (AFWTR). Payload-class satellites include a variety of spacecraft equipped with specific instruments for various scientific and technological missions. These include communications satellites like Starlink; space stations such as the ISS; scientific satellites like the Hubble; Earth observation satellites from companies like Planet Labs, Umbra, and HawkEye 360; GPS; miniature CubeSats for education and research; and military/defense satellites.

Loading next visibility...
Identifier
69707, 2026-147D
Orbit
SSO
Country
Flag of USUS
Related business
Manufacturer
SpaceX/Seattle
Mission
Operational spacecraft
Bus & Motor
STARLINK V2MO, Unknown motor
Mass
575 kg wet, ~530 kg dry
Launch date (UTC)
2026-06-28 (2 weeks ago)
Launch vehicle
FALCON 9
Launch site
Air Force Western Test Range (AFWTR)
Object type
Payload
Rocket body
Debris
Shape & HBR
Unknown shape, 17.7 m
Radar Cross Section
Large (>1 m²)

Expand to show TLE details & history
Last TLE update: 7 hours ago

TLE from 7 hours ago
0 STARLINK-37975
1 69707U 26147D   26193.06513676  .00242656  00000-0  12272-2 0  9995
2 69707  97.2854 229.2773 0001349 117.2688 242.8718 15.80913942  3364
Epoch: 2026-07-12T01:33Z
TLE epoch observation values (Epoch: 2026-07-12T01:33:47.816Z)
Latitude
0.00002°
Longitude
-84.14129°
Altitude
331.444 km
Speed
7.709 km/s
True Right ascension
15h 17m 06s
True Declination
0° 00' 00"
Sunlit
Object was in full shadow at epoch
Visualization orbit readout
Latitude
Unknown
Longitude
Unknown
Altitude
Unknown
Speed
Unknown
Apparent Right ascension
Unknown
Apparent Declination
Unknown
Sunlit
N/A
Visualization observer readout
Local Sidereal Time
20:55:26
Azimuth
Unknown
Elevation
Unknown
Doppler factor
Unknown
Orbital elements
Apogee altitude
325.639 km
Perigee altitude
323.831 km
Semi-major axis
6,702.872 km
Eccentricity
0.00013
Inclination
97.2854°
RAAN
229.2773°
Arg. of periapsis
117.2688°
True anomaly
242.85804°
Mean anomaly
242.8718°
Eccentric anomaly
242.86492°
Mean motion
3.95505 °/min
Orbital period
91.02 mins
BSTAR
0.0012272
Loading maneuver chart data...
Computing Atmospheric mass density...
Loading historical data...
Loading historical data...
Loading historical data...
Loading historical data...
Loading historical data...
Loading historical data...
Loading historical data...

Documentation

Showing up to 5 results
|